User: anonymous   Login
Location: Caltech
(34.1382°N, 118.1253°W)
Time: 11:15:02
(UTC-08:00)
Language:

Cosmos 1833 Rocket - Orbit

View from above orbital plane
View from above orbital plane
View from above satellite
View from above satellite

Ground track
Ground track

The orbit data is extracted from the following two-line orbital elements,

1 17590U 87027B   17017.52919679 -.00000231  00000-0 -91711-4 0  9991
2 17590  71.0039 107.2224 0005365 200.2371 159.8541 14.16737025542781
Epoch (UTC): 17 January 2017 12:42:02
Eccentricity: 0.0005365
inclination: 71.0039°
perigee height: 832 km
apogee height: 840 km
right ascension of ascending node: 107.2224°
argument of perigee: 200.2371°
revolutions per day: 14.16737025
mean anomaly at epoch: 159.8541°
orbit number at epoch: 54278

The dashed part of the orbit path shows where the satellite is in the earth's shadow,  

DLR